Regional Weather Roundup
Issued by NWS

Home | Current Version | Previous Version | Text Only | Print | Product List | Glossary On
Versions: 1 2 3 4 5 6 7 8 9 10 11 12 13 14 15 16 17 18 19 20 21 22 23 24 25 26 27 28 29 30 31 32 33 34 35 36 37 38 39 40 41 42 43 44 45 46 47 48 49 50
000
ASUS43 KDTX 290910
RWRMI
MICHIGAN HOURLY REGIONAL WEATHER ROUNDUP
NATIONAL WEATHER SERVICE DETROIT/PONTIAC MI
500 AM EDT SAT APR 29 2017

NOTE: "FAIR" INDICATES FEW OR NO CLOUDS BELOW 12,000 FEET WITH NO
SIGNIFICANT WEATHER AND/OR OBSTRUCTION TO VISIBILITY.

MIZ047>049-052>055-059>063-066>070-074>076-081>083-291000-
SOUTHEAST LOWER MICHIGAN

CITY           SKY/WX    TMP DP  RH WIND       PRES   REMARKS
ADRIAN         CLOUDY    53  52  96 NE7       29.99R
ALMA           CLOUDY    46  38  74 N12       30.08F
ANN ARBOR      CLOUDY    55  49  80 CALM      30.00R
BAD AXE        CLOUDY    40  32  74 N9        30.09R WCI  34
CARO           CLOUDY    42  35  76 N5        30.07R
DETROIT CITY   CLOUDY    55  50  83 NE6       30.01R
DETROIT        CLOUDY    55  53  93 SE3       30.02R
FLINT          CLOUDY    46  38  73 N10       30.06R
GROSSE ILE     CLOUDY    55  52  90 N3        30.00R
HILLSDALE      CLOUDY    52  46  82 N6        29.98R
HOWELL         CLOUDY    47  39  74 N9        30.03R

CITY           SKY/WX    TMP DP  RH WIND       PRES   REMARKS
JACKSON        CLOUDY    52  46  80 N8        30.00R
LAMBERTVILLE   DRIZZLE   53  52  97 E6        29.98S
LANSING        MOCLDY    48  40  73 N12       30.05R
LAPEER         CLOUDY    43  35  73 NE7       30.06R
MASON          CLOUDY    48  42  80 N10       30.04R
MONROE         CLOUDY    55  54  97 N5        29.99R
MT. CLEMENS    CLOUDY    44  38  78 N12G23    30.02R
PONTIAC        CLOUDY    52  47  83 N3        30.00R
PORT HOPE        N/A     41  34  76 N13       30.11R
PORT HURON     PTCLDY    39  30  70 N8        30.05R WCI  34
TRI CITIES     CLOUDY    46  40  79 N13       30.09F
MIDLAND        CLOUDY    44  33  65 N6        30.12R
TROY           CLOUDY    56  46  70 NE5       30.03R
SAGINAW HB     CLOUDY    43  36  75 N7        30.08S
$$
MIZ043>046-050>051-056>058-064>065-071>073-077>080-291000-
SOUTHWEST LOWER MICHIGAN

CITY           SKY/WX    TMP DP  RH WIND       PRES   REMARKS
BATTLE CREEK   CLOUDY    50  42  74 N12       30.01S
BENTON HARBOR  CLOUDY    49  40  71 VRB5      30.02S
BIG RAPIDS     CLOUDY    43  32  65 NE3       30.11R
COLDWATER      CLOUDY    51  47  87 N5        29.99R
FREMONT        CLOUDY    44  32  63 NE7       30.11R
HOLLAND        CLOUDY    46  41  82 NE5       30.06F
GRAND RAPIDS   CLOUDY    45  45 100 N7        30.05F
IONIA          MOCLDY    45  41  86 NE10      30.06R
KALAMAZOO      MOCLDY    52  41  66 N10       30.01S
LUDINGTON      CLOUDY    40  36  84 E5        30.14R
MARSHALL       CLOUDY    52  46  79 N7        30.00R
MOUNT PLEASANT DRIZZLE   42  36  80 CALM      30.11R
MUSKEGON       CLOUDY    47  34  60 N13       30.10R
SOUTH HAVEN    CLOUDY    47  40  79 NE16G22   30.02F
$$
MIZ016>042-291000-
NORTHERN LOWER MICHIGAN

CITY           SKY/WX    TMP DP  RH WIND       PRES   REMARKS
ALPENA         CLOUDY    39  30  70 NW8       30.10R WCI  33
BEAVER ISLAND  PTCLDY    35  27  71 NW3       30.14R
BELLAIRE       MOCLDY    37  29  71 N7        30.12S WCI  32
CADILLAC       CLOUDY    37  32  81 N3        30.08R
CHARLEVOIX     PTCLDY    36  27  72 N12G17    30.16R WCI  27
FRANKFORT      CLOUDY    37  29  72 N9        30.12R WCI  31
GAYLORD        CLOUDY    37  27  67 VRB6      30.09R WCI  32
GRAYLING       CLOUDY    37  28  72 NW8       30.10R WCI  30
HARBOR SPRINGS CLOUDY    35  26  69 NW7       30.12R WCI  29
HOUGHTON LAKE  CLOUDY    39  30  70 N7        30.09R WCI  34
MANISTEE       CLOUDY    41  31  67 N5        30.11R
OSCODA         MIX PCPN  41  32  71 N3        30.10R
PELLSTON         N/A    N/A N/A N/A MISG      30.13R
ROGERS CITY    CLOUDY    37  27  68 NW14G22   30.11R WCI  28
TRAVERSE CITY  PTCLDY    38  30  73 N12       30.11R WCI  30
$$
MIZ007>008-015-291000-
EASTERN UPPER MICHIGAN

CITY           SKY/WX    TMP DP  RH WIND       PRES   REMARKS
KINROSS        CLOUDY    35  24  64 NW12G21   30.08S WCI  27
MACKINAC ISLAN CLOUDY    34  25  69 NW8G17    30.12R WCI  28
NEWBERRY       CLOUDY    32  27  83 NW7       30.10S WCI  26
S. S. MARIE    CLOUDY    37  26  64 NW14G22   30.07F WCI  28
MUNISING         N/A     36  31  82 N14       30.11F WCI  27
$$
MIZ004>006-011>014-085-291000-
CENTRAL UPPER MICHIGAN

CITY           SKY/WX    TMP DP  RH WIND       PRES   REMARKS
MANISTIQUE     CLEAR     30  28  90 NW3       30.12F
ESCANABA       CLEAR     30  25  81 CALM      30.14F
MENOMINEE      CLEAR     33  26  75 N5        30.14S WCI  29
SAWYER-GWINN   CLEAR     27  24  89 N7        30.12F WCI  19
$$
MIZ001>003-009>011-084-291000-
WESTERN UPPER MICHIGAN

CITY           SKY/WX    TMP DP  RH WIND       PRES   REMARKS
IRON MOUNTAIN  CLEAR     29  23  78 NW7       30.12F WCI  22
HOUGHTON       CLEAR     31  24  75 NW10      30.16S WCI  22
COPPER HARBOR    N/A     36  26  67 NE18      30.18R WCI  26
IRONWOOD       CLEAR     23  22  96 CALM      30.21S
$$

ABBREVIATIONS USED IN REMARKS
   TC - TEMPERATURE IN CELSIUS
  WCI - WIND CHILL INDEX
   HX - HEAT INDEX
  VSB - VISIBILITY





USA.gov is the U.S. government's official web portal to all federal, state and local government web resources and services.